Regional Weather Roundup
Issued by NWS

Home | Current Version | Previous Version | Text Only | Print | Product List | Glossary On
Versions: 1 2 3 4 5 6 7 8 9 10 11 12 13 14 15 16 17 18 19 20 21 22 23 24 25 26 27 28 29 30 31 32 33 34 35 36 37 38 39 40 41 42 43 44 45 46 47 48 49 50
000
ASUS44 KEWX 281303
RWRTX
SOUTH TEXAS REGIONAL WEATHER ROUNDUP
NATIONAL WEATHER SERVICE AUSTIN/SAN ANTONIO TX
800 AM CDT SAT MAR 28 2015

NOTE: "FAIR" INDICATED FEW OR NO CLOUDS BELOW 12,000 FEET WITH NO
SIGNIFICANT WEATHER AND/OR OBSTRUCTIONS TO VISIBILITY.

* - THESE STATIONS ARE NOT NWS OR FAA STATIONS...AND ARE NOT SUBJECT
    TO NWS AND FAA QUALITY CONTROL.

TXZ171-172-183>190-281400-
TEXAS HILL COUNTRY AND EDWARDS PLATEAU

CITY           SKY/WX    TMP DP  RH WIND       PRES   REMARKS
JUNCTION       CLEAR     43  38  82 CALM      30.12R
*LLANO         CLEAR     43  39  87 CALM      30.15S
BURNET         CLEAR     47  40  76 CALM      30.14S
*HORSESHOE BAY CLEAR     45  41  86 CALM      30.12F
*KERRVILLE     CLEAR     42  38  86 N3        30.14S
*FREDERICKSBRG CLEAR     48  36  61 CALM      30.13S
*ROCKSPRINGS   CLEAR     55  34  44 S12       30.16S
*BOERNE STAGE  CLEAR     59  32  36 SW13G18   30.15S
*CASTROVILLE   CLEAR     43  39  84 NW3       30.17R
HONDO          CLEAR     42  38  85 NW5       30.17R WCI  39
*UVALDE        CLEAR     44  39  83 E5        30.16S WCI  41
DEL RIO        CLEAR     52  40  63 E9        30.10S
LAUGHLIN AFB   CLEAR     49  42  76 E3        30.11S
CARRIZO SPRGS  CLEAR     43  41  93 CALM      30.13R
$$

TXZ173-191>194-202-209-217>225-228-281400-
CENTRAL AND SOUTH CENTRAL TEXAS

CITY           SKY/WX    TMP DP  RH WIND       PRES   REMARKS
GEORGETOWN     CLEAR     43  39  87 VRB6      30.12F WCI  39
AUSTIN/BERGSTM PTCLDY    42  41  96 CALM      30.13R
AUSTIN/MABRY   CLEAR     49  44  83 CALM      30.14R
*AUSTIN/EXEC     N/A     48  45  87 CALM      30.13F
*LAGO VISTA    CLEAR     57  40  52 SW3       30.13S
SAN MARCOS     CLEAR     45  39  81 SW3       30.14S
NEW BRAUNFELS  CLEAR     49  41  74 CALM      30.13S
RANDOLPH AFB   CLEAR     56  40  54 SW3       30.15R
PT SAN ANTONIO CLEAR     55  40  57 CALM      30.13S
SAN ANTONIO    CLEAR     59  39  47 SW9       30.14S
STINSON FIELD  CLEAR     50  43  77 W3        30.14R
*PLEASANTON    CLEAR     48  42  80 CALM      30.17R
*LA GRANGE     CLEAR     48  47  95 CALM      30.13R
*GIDDINGS      CLEAR     49  44  82 CALM      30.18R
*GONZALES      CLEAR     51  45  81 CALM      30.14S
$$

TXZ163>164-176>182-195>201-210>213-226-227-235-281400-
SOUTHEAST TEXAS

CITY           SKY/WX    TMP DP  RH WIND       PRES   REMARKS
COLLEGE STN    CLEAR     51  43  74 S7        30.14S
*BRYAN         CLEAR     49  43  79 SE7       30.16R WCI  46
*CALDWELL      CLEAR     48  45  87 SE6       30.17S WCI  46
*CROCKETT      CLEAR     50  43  76 E3        30.18S
*BRENHAM       CLEAR     51  45  79 CALM      30.16S
HUNTSVILLE     CLEAR     52  41  66 S3        30.16R
CONROE         CLEAR     45  43  93 CALM      30.17R
HOUSTON BUSH   PTCLDY    52  45  77 SE5       30.17R
HOUSTON HOBBY  PTCLDY    56  47  71 CALM      30.17R
*HOUSTON SW AP CLEAR     55  55 100 CALM      30.18R
PEARLAND       CLEAR     54  49  83 CALM      30.18R
HOUSTON HOOKS  CLEAR     51  47  86 CALM      30.16F
ELLINGTON FLD  CLEAR     59  46  63 CALM      30.18S
SUGAR LAND     CLEAR     51  46  83 W3        30.17R
*HOUSTON EXEC  CLEAR     50  45  81 CALM      30.18R
*CLEVELAND MUN CLEAR     46  46  99 CALM      30.17R
*WHARTON       CLEAR     50  50  99 CALM      30.17S
*COLUMBUS      FAIR      50  46  87 CALM      30.16R
$$

TXZ214>216-236>238-281400-
THE UPPER TEXAS COAST

CITY           SKY/WX    TMP DP  RH WIND       PRES   REMARKS
*ORANGE        SUNNY     51  46  84 NE3       30.19R
PORT ARTHUR    CLEAR     54  47  77 E3        30.16R
GALVESTON      CLEAR     62  56  80 E8        30.18R
ANGLETON       FAIR      49  49 100 CALM      30.17R
*BAY CITY      PTCLDY    51  51 100 CALM      30.17R FOG
PALACIOS         N/A     58  54  86 SW5       30.16R
$$

TXZ229>234-239>247-281400-
TEXAS COASTAL BEND AND RIO GRANDE PLAINS

CITY           SKY/WX    TMP DP  RH WIND       PRES   REMARKS
VICTORIA       CLEAR     54  48  80 SW7       30.17R
*BEEVILLE      CLEAR     54  43  68 SW7       30.16R
ROCKPORT         N/A     53  50  89 SW3       30.17R
*PORT ARANSAS  CLEAR     60  54  79 SW13      30.17R
*PORT LAVACA   CLEAR     53  51  94 W7        30.17R
*INGLESIDE     FAIR      59  53  78 SW8       30.17R
CORPUS CHRISTI FAIR      53  48  83 SW9       30.18R
CORPUS NAS     CLEAR     55  51  86 SW13      30.17R
*ROBSTOWN      FAIR      52  50  92 MISG      30.18R
ALICE          CLEAR     52  48  86 SW8       30.17R
KINGSVILLE NAS CLEAR     49  48  97 S6        30.18R WCI  46
COTULLA        CLEAR     50  43  77 E5        30.16R WCI  48
*FAITH RANCH   CLEAR     50  41  71 S7        30.14R WCI  47
LAREDO         CLEAR     53  44  71 SE8       30.17R
$$

TXZ248>255-281400-
DEEP SOUTH TEXAS

CITY           SKY/WX    TMP DP  RH WIND       PRES   REMARKS
BROWNSVILLE    CLEAR     53  52  96 S3        30.19R
PORT ISABEL    CLEAR     55  53  93 S5        30.17S
*SOUTH PADRE   CLEAR     59  59 100 SW7       30.18S
HARLINGEN      CLEAR     50  50 100 S3        30.18R
*HEBBRONVILLE  NOT AVBL
MCALLEN        CLEAR     53  49  86 SE5       30.18S
*WESLACO       CLEAR     53  48  84 S5        30.18R
FALFURRIAS     CLEAR     51  48  92 S3        30.18S
EDINBURG       CLEAR     52  49  89 CALM      30.18S
*ZAPATA        NOT AVBL
$$

TXZ213>215-236>238-242>244-246-247-251-254-255-281400-
CMAN STATIONS

STATION/POSITION TIME  TEMP    WIND        PRES    WAVE
                       AIR SEA DIR/SP/G            HT/PER
                 (UTC) (F)     (DEG/KT/KT) (MB)    (FT/S)
$$

GMZ080-GMZ150>470-281400-
OFFSHORE BUOY REPORTS

STATION/POSITION TIME  TEMP    WIND        PRES    WAVE
                       AIR SEA DIR/SP/G            HT/PER
                 (UTC) (F)     (DEG/KT/KT) (MB)    (FT/S)
$$



USA.gov is the U.S. government's official web portal to all federal, state and local government web resources and services.